DW5948 Weather Reports


Display with metric or nautical units.
time (UTC)temp
F
wind
direction
speed
MPH
gust
MPH
rain 1hr
in
rain 24hr
in
rain mn
in
humidity
%
barometer
mb
20260502163010 69 270 2.0 10.0 0.00 0.45 0.00 59 1020.9
20260502161508 69 357 2.0 7.0 0.00 0.45 0.00 61 1021.0
20260502151609 66 98 2.0 8.0 0.00 0.57 0.00 71 1020.8
20260502123024 54 328 0.0 4.0 0.00 0.82 0.00 93 1019.1
20260502121524 53 325 0.0 4.0 0.00 0.82 0.00 93 1018.9
20260502114519 53 321 1.0 6.0 0.00 0.82 0.00 93 1018.4
20260502113019 53 338 0.0 3.0 0.00 0.82 0.00 92 1018.5
20260502111522 53 316 0.0 4.0 0.00 0.82 0.00 92 1018.5
20260502110013 53 316 0.0 2.0 0.00 0.82 0.00 92 1018.1
20260502104511 53 311 0.0 2.0 0.00 0.84 0.00 92 1017.9
20260502103010 53 312 0.0 2.0 0.00 0.84 0.00 92 1017.8
20260502101510 54 36 0.0 1.0 0.00 0.84 0.00 91 1017.6
20260502080105 55 51 0.0 5.0 0.00 1.24 0.00 94 1016.1
20260502070049 55 34 0.0 4.0 0.00 1.48 0.00 94 1016.2
20260502064548 56 62 0.0 5.0 0.00 1.52 0.00 95 1016.1
20260502063047 56 4 1.0 4.0 0.00 1.52 0.00 96 1016.2
20260502061546 56 12 0.0 4.0 0.00 1.52 0.00 96 1016.0
20260502060045 56 5 0.0 7.0 0.00 1.52 0.00 96 1015.8
20260502054547 56 53 1.0 6.0 0.00 1.55 0.00 96 1015.8
20260502053052 56 28 0.0 4.0 0.00 1.55 0.00 97 1016.0
20260502051554 56 347 2.0 8.0 0.00 1.55 0.00 97 1015.7
20260502050040 56 347 0.0 7.0 0.00 1.55 0.00 97 1015.6
20260502044541 56 23 2.0 8.0 0.00 1.67 0.00 97 1015.5
20260502043039 56 59 1.0 7.0 0.00 1.67 0.00 97 1015.5
20260502040007 56 326 1.0 5.0 0.00 1.67 1.55 97 1015.5
20260502034601 56 22 2.0 5.0 0.00 1.67 1.55 97 1015.5
20260502033059 56 328 0.0 7.0 0.00 1.67 1.55 97 1015.4
20260502031558 56 6 1.0 7.0 0.00 1.67 1.55 97 1015.0
20260502030053 56 28 1.0 6.0 0.00 1.67 1.55 97 1014.6
20260502024550 56 8 1.0 7.0 0.00 1.67 1.55 97 1014.1
20260502023048 57 30 1.0 9.0 0.00 1.67 1.55 97 1013.9
20260502021544 58 357 0.0 8.0 0.00 1.67 1.55 97 1013.5
20260502020043 58 359 1.0 4.0 0.00 1.67 1.55 97 1013.4
20260502014544 58 21 0.0 5.0 0.00 1.67 1.55 97 1013.2
20260502013050 58 3 0.0 5.0 0.00 1.67 1.55 97 1013.2
20260502011557 58 7 1.0 5.0 0.00 1.67 1.55 97 1013.0
20260502010045 58 15 1.0 7.0 0.00 1.67 1.55 97 1012.3
20260502004553 59 17 1.0 9.0 0.00 1.67 1.55 97 1012.8
20260502003036 59 330 0.0 3.0 0.00 1.67 1.55 97 1012.0
20260502001538 59 11 0.0 4.0 0.00 1.67 1.55 97 1011.8
20260502000034 59 40 1.0 6.0 0.00 1.67 1.55 97 1011.7
20260501234539 59 24 1.0 5.0 0.00 1.67 1.55 97 1011.7
20260501233039 59 329 1.0 8.0 0.00 1.67 1.55 97 1011.8
20260501231539 59 39 2.0 11.0 0.00 1.67 1.55 97 1010.0
20260501230030 60 58 2.0 8.0 0.00 1.67 1.55 97 1010.5
20260501224530 60 2 4.0 10.0 0.00 1.67 1.55 97 1010.6
20260501223028 61 115 2.0 10.0 0.00 1.67 1.55 97 1010.0
20260501221526 61 18 4.0 13.0 0.00 1.67 1.55 97 1009.8
20260501220038 61 30 2.0 12.0 0.00 1.67 1.55 97 1010.0
20260501214525 61 1 1.0 7.0 0.00 1.67 1.55 97 1010.4
20260501213032 62 52 1.0 6.0 0.00 1.67 1.55 98 1010.5
20260501211523 62 44 2.0 7.0 0.00 1.67 1.55 97 1010.4
20260501210022 62 321 0.0 6.0 0.00 1.67 1.55 97 1010.6
20260501204522 62 10 2.0 8.0 0.00 1.67 1.55 97 1008.9
20260501203019 62 7 2.0 9.0 0.00 1.67 1.55 97 1009.1
20260501201518 62 39 1.0 4.0 0.00 1.67 1.55 97 1009.5
20260501200018 62 27 1.0 5.0 0.00 1.67 1.55 97 1009.3
20260501194517 62 138 1.0 8.0 0.00 1.67 1.55 97 1008.6
20260501193032 62 37 1.0 7.0 0.00 1.67 1.55 97 1009.0
20260501191528 63 44 0.0 2.0 0.00 1.67 1.55 97 1009.1
20260501190042 62 23 1.0 9.0 0.00 1.67 1.55 97 1009.4
20260501184531 62 59 2.0 9.0 0.00 1.67 1.55 97 1008.7
20260501183020 63 4 2.0 11.0 0.18 1.67 1.55 97 1008.3
20260501181514 62 28 0.0 6.0 0.31 1.67 1.55 97 1009.2
20260501180013 62 61 3.0 12.0 0.34 1.67 1.55 97 1008.1
20260501174515 63 72 3.0 9.0 0.37 1.67 1.55 97 1009.1
20260501173012 63 320 0.0 6.0 0.19 1.49 1.37 96 1010.1
20260501171511 63 13 0.0 5.0 0.08 1.36 1.24 96 1010.3